Theta_e
340 343 344 345 346 346 346 345 343 342 341 339 338 337 334 334 332 331 330 330 329 324
341 343 344 345 344 343 341 340 339 338 336 335 334 329 326 323 321 319 318 318 319 317
343 344 345 344 340 339 337 335 331 329 326 323 320 317 316 314 313 312 312 313 314 314
341 342 341 338 337 337 335 332 326 323 318 315 313 311 310 309 308 307 307 309 310 310
341 341 336 333 333 331 326 323 318 315 312 310 308 307 307 305 305 304 304 306 309 307
336 333 329 322 319 317 315 314 312 311 309 306 305 305 305 304 303 304 306 306 305 304
327 322 317 314 311 310 309 307 306 306 304 304 303 304 305 304 305 305 305 305 304 304
318 315 312 310 307 308 305 303 303 302 302 303 304 305 304 305 305 305 305 304 304 304
312 309 306 305 305 303 301 300 300 300 301 301 303 301 303 304 304 304 302 300 300 301
309 305 304 302 301 299 298 297 297 298 299 298 300 298 299 300 301 300 299 298 299 299
305 303 302 300 298 297 297 296 296 296 297 297 298 297 297 298 299 298 297 297 297 297
305 301 300 298 296 296 295 295 294 295 295 295 295 295 295 297 297 297 297 298 298 297
303 301 299 298 297 296 294 294 294 293 294 295 294 294 294 296 296 295 296 297 296 296
304 301 301 298 296 295 293 293 292 291 292 293 294 294 294 294 295 296 296 296 294 294
Wind_Speed
11 9 8 10 8 6 6 7 9 7 5 5 9 7 7 3 5 6 3 5 6 4
12 11 10 8 9 7 7 8 10 11 11 4 5 11 9 7 8 4 5 6 6 4
14 12 10 10 11 13 12 13 14 9 6 6 5 12 10 7 6 7 5 4 6 5
12 12 12 12 11 12 13 15 15 10 8 3 7 12 9 8 8 7 5 4 5 7
12 13 13 13 14 14 14 10 13 15 12 9 10 10 8 7 6 6 5 4 6 7
14 14 16 15 15 15 16 14 12 13 12 11 10 10 6 7 6 7 5 7 8 7
16 17 18 16 16 17 16 15 13 11 12 11 10 9 8 8 8 10 9 9 9 8
16 17 19 19 18 15 17 14 14 13 11 10 8 7 9 9 10 10 10 9 9 9
17 18 17 18 17 17 16 13 13 11 11 10 8 12 13 9 9 9 9 9 8 7
19 19 18 17 16 16 15 13 13 11 11 10 10 13 13 13 9 9 9 8 6 6
21 21 19 17 16 15 12 13 12 10 10 11 9 14 15 16 11 10 9 8 7 6
20 22 19 17 15 13 14 13 11 9 10 10 9 13 13 13 9 9 9 7 5 6
17 20 19 17 14 12 15 14 11 11 10 13 10 12 13 9 6 7 5 6 6 9
16 19 16 17 13 14 15 13 12 11 9 11 9 9 11 8 5 5 5 5 5 4
Wind_Direction
173 179 174 174 169 155 149 144 146 132 111 114 92 117 141 148 73 79 83 101 73 80
175 163 170 148 118 118 109 97 83 87 74 37 208 141 75 82 79 75 80 74 81 82
175 169 138 127 133 131 118 106 81 55 114 123 98 73 86 81 82 82 59 74 77 83
159 144 127 127 141 134 127 124 117 116 129 119 90 88 95 88 79 88 79 64 87 81
140 125 119 132 123 127 120 122 113 124 124 121 96 88 90 102 103 101 90 79 88 95
130 125 128 113 114 111 110 107 106 110 119 104 99 96 99 100 98 94 99 98 98 98
129 124 116 113 112 108 108 108 105 101 97 95 93 103 113 109 110 96 92 94 89 82
121 118 117 116 114 116 107 108 105 104 97 96 101 105 113 114 105 107 100 81 77 66
124 115 113 110 112 111 106 106 107 104 107 107 99 98 92 100 106 100 95 86 72 66
123 117 111 109 106 102 103 104 95 93 97 91 87 92 97 95 91 88 88 85 75 65
120 116 111 106 106 104 104 98 96 93 89 88 80 87 89 90 88 86 82 82 79 75
125 115 113 110 110 109 104 92 91 87 84 86 76 83 90 94 93 94 85 82 80 79
112 109 111 111 108 111 98 101 99 88 79 87 83 78 87 96 109 99 102 84 80 69
100 101 107 107 114 109 103 103 96 92 79 77 73 70 89 106 110 120 119 113 88 66